QPF
0.01 0.01 0.01 0.01 0.00 0.01 0.01 0.01 0.00 0.00 0.00 0.00 0.00 0.00 0.00 0.00 0.00 0.00 0.00 0.00 0.00 0.00 0.00 0.00 0.00 0.00 0.00 0.00 0.00 0.00 0.00 0.00 0.00 0.00 0.00 0.00 0.00 0.00 0.00 0.00 0.00 0.00 0.00 0.00 0.00
0.00 0.01 0.01 0.00 0.00 0.01 0.00 0.00 0.00 0.00 0.00 0.00 0.00 0.00 0.00 0.00 0.00 0.00 0.00 0.00 0.00 0.00 0.00 0.00 0.00 0.00 0.00 0.00 0.00 0.00 0.00 0.00 0.00 0.00 0.00 0.00 0.00 0.00 0.00 0.00 0.00 0.00 0.00 0.00 0.00
0.01 0.01 0.01 0.00 0.00 0.00 0.00 0.00 0.00 0.00 0.00 0.00 0.00 0.00 0.00 0.00 0.00 0.00 0.00 0.00 0.00 0.00 0.00 0.00 0.00 0.00 0.00 0.00 0.00 0.00 0.00 0.00 0.00 0.00 0.00 0.00 0.00 0.00 0.00 0.00 0.00 0.00 0.00 0.00 0.00
0.00 0.01 0.01 0.00 0.00 0.00 0.00 0.00 0.00 0.00 0.00 0.00 0.00 0.00 0.00 0.00 0.00 0.00 0.00 0.00 0.00 0.00 0.00 0.00 0.00 0.00 0.00 0.00 0.00 0.00 0.00 0.00 0.00 0.00 0.00 0.00 0.00 0.00 0.00 0.00 0.00 0.00 0.00 0.00 0.00
0.00 0.00 0.01 0.01 0.00 0.00 0.00 0.00 0.00 0.00 0.00 0.00 0.00 0.00 0.00 0.00 0.00 0.00 0.00 0.00 0.00 0.00 0.00 0.00 0.00 0.00 0.00 0.00 0.00 0.00 0.00 0.00 0.00 0.00 0.00 0.00 0.00 0.00 0.00 0.00 0.00 0.00 0.00 0.00 0.00
0.00 0.01 0.01 0.01 0.00 0.00 0.00 0.00 0.00 0.00 0.00 0.00 0.00 0.00 0.00 0.00 0.00 0.00 0.00 0.00 0.00 0.00 0.00 0.00 0.00 0.00 0.00 0.00 0.00 0.00 0.00 0.00 0.00 0.00 0.00 0.00 0.00 0.00 0.00 0.00 0.00 0.00 0.00 0.00 0.00
0.00 0.01 0.01 0.01 0.00 0.00 0.00 0.00 0.00 0.00 0.00 0.00 0.00 0.00 0.00 0.00 0.00 0.00 0.00 0.00 0.00 0.00 0.00 0.00 0.00 0.00 0.00 0.00 0.00 0.00 0.00 0.00 0.00 0.00 0.00 0.00 0.00 0.00 0.00 0.00 0.00 0.00 0.00 0.00 0.00
0.00 0.01 0.01 0.00 0.00 0.00 0.00 0.00 0.00 0.00 0.00 0.00 0.00 0.00 0.00 0.00 0.00 0.00 0.00 0.00 0.00 0.00 0.00 0.00 0.00 0.00 0.00 0.00 0.00 0.00 0.00 0.00 0.00 0.00 0.00 0.00 0.00 0.00 0.00 0.00 0.00 0.00 0.00 0.00 0.00
0.00 0.01 0.00 0.00 0.00 0.00 0.00 0.00 0.00 0.00 0.00 0.00 0.00 0.00 0.00 0.00 0.00 0.00 0.00 0.00 0.00 0.00 0.00 0.00 0.00 0.00 0.00 0.00 0.00 0.00 0.00 0.00 0.00 0.00 0.00 0.00 0.00 0.00 0.00 0.00 0.00 0.00 0.00 0.00 0.00
0.00 0.00 0.00 0.00 0.00 0.00 0.00 0.00 0.00 0.00 0.00 0.00 0.00 0.00 0.00 0.00 0.00 0.00 0.00 0.00 0.00 0.00 0.00 0.00 0.00 0.00 0.00 0.00 0.00 0.00 0.00 0.00 0.00 0.00 0.00 0.00 0.00 0.00 0.00 0.00 0.00 0.00 0.00 0.00 0.00
0.00 0.00 0.00 0.00 0.00 0.00 0.00 0.00 0.00 0.00 0.00 0.00 0.00 0.00 0.00 0.00 0.00 0.00 0.00 0.00 0.00 0.00 0.00 0.00 0.00 0.00 0.00 0.00 0.00 0.00 0.00 0.00 0.00 0.00 0.00 0.00 0.00 0.00 0.00 0.00 0.00 0.00 0.00 0.00 0.00
0.01 0.00 0.00 0.00 0.00 0.00 0.00 0.00 0.00 0.00 0.00 0.00 0.00 0.00 0.00 0.00 0.00 0.00 0.00 0.00 0.00 0.00 0.00 0.00 0.00 0.00 0.00 0.00 0.00 0.00 0.00 0.00 0.00 0.00 0.00 0.00 0.00 0.00 0.00 0.00 0.00 0.00 0.00 0.00 0.00
0.01 0.01 0.01 0.01 0.00 0.00 0.00 0.00 0.00 0.00 0.00 0.00 0.00 0.00 0.00 0.00 0.00 0.00 0.00 0.00 0.00 0.00 0.00 0.00 0.00 0.00 0.00 0.00 0.00 0.00 0.00 0.00 0.00 0.00 0.00 0.00 0.00 0.00 0.00 0.00 0.00 0.00 0.00 0.00 0.00
0.00 0.01 0.01 0.01 0.01 0.00 0.00 0.00 0.00 0.00 0.00 0.00 0.00 0.00 0.00 0.00 0.00 0.00 0.00 0.00 0.00 0.00 0.00 0.00 0.00 0.00 0.00 0.00 0.00 0.00 0.00 0.00 0.00 0.00 0.00 0.00 0.00 0.00 0.00 0.00 0.00 0.00 0.00 0.00 0.00
0.00 0.00 0.01 0.03 0.00 0.00 0.00 0.00 0.00 0.00 0.00 0.00 0.00 0.00 0.00 0.00 0.00 0.00 0.00 0.00 0.00 0.00 0.00 0.00 0.00 0.00 0.00 0.00 0.00 0.00 0.00 0.00 0.00 0.00 0.00 0.00 0.00 0.00 0.00 0.00 0.00 0.00 0.00 0.00 0.00
0.00 0.00 0.01 0.03 0.01 0.00 0.00 0.00 0.00 0.00 0.00 0.00 0.00 0.00 0.00 0.00 0.00 0.00 0.00 0.00 0.00 0.00 0.00 0.00 0.00 0.00 0.00 0.00 0.00 0.00 0.00 0.00 0.00 0.00 0.00 0.00 0.00 0.00 0.00 0.00 0.00 0.00 0.00 0.00 0.00
0.00 0.01 0.01 0.02 0.01 0.00 0.00 0.00 0.00 0.00 0.00 0.00 0.00 0.00 0.00 0.00 0.00 0.00 0.00 0.00 0.00 0.00 0.00 0.00 0.00 0.00 0.00 0.00 0.00 0.00 0.00 0.00 0.00 0.00 0.00 0.00 0.00 0.00 0.00 0.00 0.00 0.00 0.00 0.00 0.00
0.00 0.00 0.01 0.01 0.01 0.03 0.01 0.00 0.00 0.00 0.00 0.00 0.00 0.00 0.00 0.00 0.00 0.00 0.00 0.00 0.00 0.00 0.00 0.00 0.00 0.00 0.00 0.00 0.00 0.00 0.00 0.00 0.00 0.00 0.00 0.00 0.00 0.00 0.00 0.00 0.00 0.00 0.00 0.00 0.00
0.00 0.00 0.00 0.01 0.03 0.06 0.04 0.00 0.00 0.00 0.00 0.00 0.00 0.00 0.00 0.00 0.00 0.00 0.00 0.00 0.00 0.00 0.00 0.00 0.00 0.00 0.00 0.00 0.00 0.00 0.00 0.00 0.00 0.00 0.00 0.00 0.00 0.00 0.00 0.00 0.00 0.00 0.00 0.00 0.00
0.00 0.00 0.00 0.00 0.01 0.10 0.07 0.00 0.00 0.00 0.00 0.00 0.00 0.00 0.00 0.00 0.00 0.00 0.00 0.00 0.00 0.00 0.00 0.00 0.00 0.00 0.00 0.00 0.00 0.00 0.00 0.00 0.00 0.00 0.00 0.00 0.00 0.00 0.00 0.00 0.00 0.00 0.00 0.00 0.00
0.00 0.00 0.00 0.00 0.00 0.04 0.03 0.00 0.00 0.00 0.00 0.00 0.00 0.00 0.00 0.00 0.00 0.00 0.00 0.00 0.00 0.00 0.00 0.00 0.00 0.00 0.00 0.00 0.00 0.00 0.00 0.00 0.00 0.00 0.00 0.00 0.00 0.00 0.00 0.00 0.00 0.00 0.00 0.00 0.00
0.00 0.00 0.00 0.00 0.00 0.00 0.00 0.00 0.00 0.00 0.00 0.00 0.00 0.00 0.00 0.00 0.00 0.00 0.00 0.00 0.00 0.00 0.00 0.00 0.00 0.00 0.00 0.00 0.00 0.00 0.00 0.00 0.00 0.00 0.00 0.00 0.00 0.00 0.00 0.00 0.00 0.00 0.00 0.00 0.00
0.00 0.00 0.00 0.00 0.00 0.00 0.00 0.00 0.00 0.00 0.00 0.00 0.00 0.00 0.00 0.00 0.00 0.00 0.00 0.00 0.00 0.00 0.00 0.00 0.00 0.00 0.00 0.00 0.00 0.00 0.00 0.00 0.00 0.00 0.00 0.00 0.00 0.00 0.00 0.00 0.00 0.00 0.00 0.00 0.00
0.00 0.00 0.00 0.00 0.00 0.00 0.00 0.00 0.00 0.00 0.00 0.00 0.00 0.00 0.00 0.00 0.00 0.00 0.00 0.00 0.00 0.00 0.00 0.00 0.00 0.00 0.00 0.00 0.00 0.00 0.00 0.00 0.00 0.00 0.00 0.00 0.00 0.00 0.00 0.00 0.00 0.00 0.00 0.00 0.00
0.00 0.00 0.00 0.00 0.00 0.00 0.00 0.00 0.00 0.00 0.00 0.00 0.00 0.00 0.00 0.00 0.00 0.00 0.00 0.00 0.00 0.00 0.00 0.00 0.00 0.00 0.00 0.00 0.00 0.00 0.00 0.00 0.00 0.00 0.00 0.00 0.00 0.00 0.00 0.00 0.00 0.00 0.00 0.00 0.00
0.00 0.00 0.00 0.00 0.00 0.00 0.00 0.00 0.00 0.00 0.00 0.00 0.00 0.00 0.00 0.00 0.00 0.00 0.00 0.00 0.00 0.00 0.00 0.00 0.00 0.00 0.00 0.00 0.00 0.00 0.00 0.00 0.00 0.00 0.00 0.00 0.00 0.00 0.00 0.00 0.00 0.00 0.00 0.00 0.00
0.00 0.00 0.00 0.00 0.00 0.00 0.00 0.00 0.00 0.00 0.00 0.00 0.00 0.00 0.00 0.00 0.00 0.00 0.00 0.00 0.00 0.00 0.00 0.00 0.00 0.00 0.00 0.00 0.00 0.00 0.00 0.00 0.00 0.00 0.00 0.00 0.00 0.00 0.00 0.00 0.00 0.00 0.00 0.00 0.00
MSLP
1010.77 1011.30 1011.49 1011.95 1012.20 1012.74 1013.19 1013.57 1013.89 1014.33 1014.58 1014.62 1014.95 1015.03 1015.45 1015.41 1014.89 1015.19 1014.68 1013.50 1013.47 1013.38 1013.75 1014.18 1014.44 1014.86 1015.42 1015.84 1016.18 1016.62 1017.72 1018.51 1018.54 1018.57 1018.14 1018.41 1018.61 1018.81 1018.71 1019.13 1019.39 1019.50 1019.73 1019.93 1020.18
1010.23 1011.07 1011.40 1011.84 1012.28 1012.66 1013.11 1013.22 1013.74 1014.08 1014.51 1014.26 1014.72 1014.80 1014.35 1014.29 1015.04 1014.67 1013.28 1013.13 1013.23 1013.34 1013.86 1014.15 1014.86 1015.26 1015.65 1015.86 1016.31 1016.65 1017.71 1017.75 1017.59 1017.76 1017.79 1018.23 1018.50 1018.50 1018.70 1019.20 1019.39 1019.56 1019.82 1020.23 1020.52
1009.93 1010.75 1011.15 1011.78 1012.02 1012.35 1012.89 1013.03 1013.64 1014.03 1014.24 1014.10 1014.24 1014.70 1015.11 1015.29 1015.35 1013.11 1012.28 1012.86 1013.01 1013.29 1013.63 1013.85 1014.66 1015.00 1015.44 1015.76 1016.35 1016.67 1017.13 1017.33 1017.43 1017.43 1017.68 1018.13 1018.43 1018.42 1018.64 1019.08 1019.01 1019.22 1019.58 1020.32 1020.62
1009.76 1010.40 1010.84 1011.21 1011.82 1012.37 1012.71 1012.92 1013.56 1013.57 1013.89 1013.60 1014.34 1014.39 1014.76 1015.34 1014.73 1012.71 1012.48 1012.53 1012.88 1013.19 1013.82 1014.09 1014.91 1015.06 1015.48 1016.04 1016.26 1016.72 1017.08 1017.19 1017.38 1017.57 1017.89 1018.22 1018.42 1018.57 1018.71 1018.34 1018.51 1018.76 1019.13 1020.00 1020.37
1009.43 1010.22 1010.90 1011.19 1011.39 1012.20 1012.52 1012.75 1013.14 1013.20 1013.32 1013.51 1013.60 1014.08 1014.81 1015.14 1013.63 1012.67 1012.56 1012.73 1012.83 1013.37 1013.79 1013.89 1014.62 1014.87 1015.46 1016.13 1016.43 1016.72 1017.25 1017.37 1017.62 1017.69 1017.90 1018.15 1018.49 1018.74 1018.47 1018.29 1018.67 1018.99 1019.20 1019.65 1019.99
1009.14 1010.16 1010.79 1011.17 1011.49 1012.23 1012.26 1012.38 1012.76 1012.95 1013.26 1013.36 1013.48 1013.91 1014.29 1014.08 1012.74 1012.65 1012.86 1013.17 1013.16 1013.24 1013.64 1013.64 1014.19 1014.35 1015.58 1016.30 1016.67 1017.05 1017.31 1017.69 1017.87 1018.00 1018.10 1018.18 1018.59 1018.75 1018.29 1018.33 1018.66 1019.09 1019.47 1019.69 1019.98
1008.85 1009.79 1010.63 1011.09 1011.51 1011.84 1012.20 1012.36 1012.79 1013.00 1013.10 1013.32 1013.34 1013.73 1013.78 1012.98 1012.39 1012.65 1012.75 1012.95 1012.94 1012.84 1013.54 1013.46 1013.84 1014.24 1015.54 1016.42 1017.18 1017.50 1017.90 1018.11 1018.19 1018.26 1018.40 1018.32 1018.72 1018.64 1018.37 1018.48 1018.77 1019.10 1019.37 1019.77 1019.83
1008.57 1009.58 1010.23 1010.81 1011.22 1011.79 1011.93 1012.07 1012.49 1012.96 1013.04 1013.33 1013.54 1013.55 1013.23 1012.58 1012.61 1012.91 1013.03 1013.14 1012.93 1012.97 1013.26 1013.62 1013.70 1014.82 1015.94 1016.74 1017.68 1018.17 1018.33 1018.88 1018.63 1018.64 1018.79 1018.63 1018.69 1018.42 1018.53 1018.70 1018.84 1019.25 1019.30 1019.55 1019.60
1008.37 1009.36 1009.85 1010.48 1011.05 1011.57 1011.78 1012.20 1012.41 1012.65 1012.84 1013.25 1013.29 1012.99 1012.81 1012.51 1012.58 1012.68 1012.82 1013.00 1013.18 1013.25 1013.70 1013.82 1014.46 1016.03 1016.69 1017.33 1018.78 1019.03 1019.02 1019.10 1019.06 1019.08 1019.07 1019.23 1019.06 1018.74 1018.69 1019.06 1019.13 1019.35 1019.33 1019.61 1019.41
1008.00 1008.81 1009.59 1010.28 1010.82 1011.22 1011.60 1012.16 1012.44 1012.60 1012.95 1013.22 1012.87 1013.03 1012.71 1012.47 1012.59 1012.85 1012.83 1012.81 1013.26 1013.46 1014.44 1014.81 1015.77 1016.87 1017.73 1017.74 1018.77 1018.92 1019.33 1019.19 1019.17 1019.51 1019.38 1019.69 1019.38 1019.25 1018.97 1019.15 1019.34 1019.45 1019.40 1019.49 1019.34
1007.82 1008.65 1009.31 1010.42 1010.65 1011.09 1011.49 1012.12 1012.76 1012.79 1012.67 1012.17 1012.17 1012.26 1012.03 1012.61 1012.39 1012.99 1012.83 1013.06 1013.58 1014.24 1015.32 1015.69 1016.61 1017.18 1017.36 1017.69 1018.06 1018.43 1018.92 1019.30 1019.52 1019.57 1019.76 1020.01 1019.69 1019.32 1018.95 1019.20 1018.92 1019.05 1019.32 1019.34 1019.22
1007.70 1008.44 1009.32 1009.84 1010.36 1011.11 1011.35 1011.46 1010.81 1010.41 1012.21 1012.11 1011.95 1012.42 1012.34 1012.30 1012.67 1013.09 1012.78 1013.41 1013.98 1015.44 1015.57 1016.51 1017.01 1017.24 1017.43 1018.08 1018.45 1018.60 1019.18 1019.66 1020.02 1019.98 1020.08 1020.48 1020.01 1018.90 1018.75 1018.79 1018.93 1019.11 1019.11 1019.23 1019.12
1007.56 1008.35 1009.10 1009.80 1010.60 1011.05 1011.08 1010.84 1010.68 1010.50 1011.28 1012.10 1012.10 1011.90 1012.05 1012.22 1012.54 1013.07 1013.02 1013.58 1014.47 1015.28 1015.88 1016.49 1016.98 1017.04 1017.48 1018.59 1018.83 1019.13 1019.15 1019.69 1020.06 1020.45 1020.70 1020.74 1020.28 1019.19 1018.60 1018.75 1018.87 1019.00 1019.20 1019.36 1019.36
1008.24 1008.73 1008.95 1009.56 1010.67 1010.41 1010.68 1010.56 1010.35 1010.27 1011.56 1012.26 1012.00 1011.76 1012.08 1012.05 1012.98 1013.15 1012.99 1013.32 1014.48 1015.57 1016.17 1016.76 1017.14 1017.29 1017.88 1018.65 1018.74 1019.46 1019.17 1019.71 1020.48 1021.00 1021.59 1021.49 1021.10 1019.75 1018.97 1018.91 1019.08 1019.48 1019.60 1019.70 1019.79
1008.76 1008.95 1009.00 1009.40 1009.50 1010.05 1009.96 1010.13 1010.10 1010.30 1011.58 1011.93 1012.02 1012.05 1011.98 1012.62 1013.02 1013.45 1013.38 1013.55 1014.60 1015.39 1015.92 1016.83 1017.11 1017.50 1018.04 1018.18 1018.50 1019.51 1019.55 1020.43 1021.34 1021.96 1022.21 1022.19 1022.11 1019.74 1019.28 1019.04 1019.14 1019.53 1019.84 1020.07 1020.19
1009.13 1009.03 1008.98 1009.41 1009.23 1009.59 1009.72 1009.88 1010.57 1012.02 1011.67 1012.30 1012.40 1012.29 1012.56 1013.11 1013.31 1013.61 1013.53 1013.66 1014.58 1015.34 1016.47 1017.14 1017.00 1017.18 1017.78 1018.49 1018.65 1019.59 1020.28 1021.61 1022.52 1023.04 1023.45 1022.76 1022.66 1020.64 1019.57 1019.07 1019.15 1019.52 1020.09 1020.39 1020.46
1009.29 1009.26 1009.32 1009.52 1009.55 1009.62 1009.93 1010.43 1011.79 1011.74 1011.19 1012.32 1012.36 1012.47 1012.69 1013.60 1013.80 1013.74 1014.03 1014.42 1014.84 1015.94 1016.88 1017.50 1017.73 1017.55 1017.91 1018.70 1019.43 1019.36 1020.76 1022.74 1024.03 1024.57 1024.19 1023.79 1023.39 1020.33 1019.24 1019.40 1019.63 1019.83 1020.36 1020.68 1020.88
1009.91 1009.52 1009.69 1009.63 1009.81 1009.88 1010.17 1010.85 1010.92 1010.48 1010.85 1011.54 1011.88 1012.51 1013.01 1013.40 1014.22 1014.24 1014.27 1014.74 1014.81 1014.96 1016.86 1017.28 1018.22 1017.86 1017.78 1017.90 1018.49 1019.51 1019.80 1021.41 1023.16 1024.76 1024.60 1024.39 1022.73 1019.98 1019.50 1019.55 1019.85 1020.35 1020.73 1020.98 1021.22
1010.14 1009.82 1009.88 1010.22 1009.96 1009.91 1010.11 1010.53 1009.19 1009.50 1010.01 1011.08 1012.10 1012.70 1013.48 1013.39 1013.44 1014.07 1014.29 1014.22 1014.19 1014.32 1015.11 1016.44 1017.43 1017.78 1017.81 1017.81 1018.13 1019.51 1020.13 1020.62 1022.62 1025.66 1024.85 1023.78 1022.07 1020.19 1020.01 1020.05 1020.32 1021.06 1021.10 1021.23 1021.56
1010.40 1010.56 1010.63 1010.24 1010.06 1009.81 1010.28 1009.52 1009.51 1009.32 1009.36 1010.06 1010.86 1011.65 1012.55 1013.29 1013.61 1013.99 1014.19 1013.56 1013.80 1013.96 1013.86 1015.22 1017.26 1018.09 1018.21 1018.15 1018.42 1018.55 1019.13 1020.50 1022.14 1024.33 1024.70 1023.79 1022.53 1020.95 1020.51 1020.61 1020.87 1021.37 1021.42 1021.50 1021.70
1010.82 1011.17 1010.55 1009.81 1009.87 1010.13 1009.51 1009.34 1009.37 1009.02 1008.74 1009.04 1009.85 1011.12 1011.68 1012.39 1012.83 1013.24 1013.13 1013.31 1013.15 1013.85 1013.95 1014.76 1016.05 1018.70 1018.63 1018.30 1018.32 1018.88 1018.90 1019.88 1021.09 1022.32 1023.19 1023.38 1021.89 1019.97 1020.08 1020.39 1020.84 1021.39 1021.48 1021.60 1021.96
1010.93 1011.75 1011.10 1010.44 1010.95 1010.77 1009.48 1008.95 1009.04 1009.16 1009.12 1008.99 1009.17 1009.86 1010.94 1011.49 1012.30 1012.74 1012.66 1012.24 1012.31 1012.62 1013.99 1014.55 1016.20 1018.11 1018.30 1018.40 1018.38 1018.10 1018.44 1019.05 1020.39 1022.06 1022.52 1022.25 1020.85 1019.93 1020.04 1020.32 1020.79 1021.33 1021.64 1021.98 1022.36
1011.28 1011.74 1011.43 1010.80 1010.95 1010.67 1010.39 1009.53 1009.39 1009.27 1009.34 1009.42 1009.42 1009.61 1010.21 1010.66 1011.66 1012.24 1012.28 1012.43 1012.38 1012.54 1012.94 1014.05 1015.59 1017.88 1018.74 1018.96 1018.83 1018.47 1018.45 1018.48 1018.98 1020.02 1021.22 1021.82 1020.70 1020.38 1020.40 1020.77 1020.96 1021.39 1021.85 1022.36 1022.77
1011.64 1011.88 1011.71 1011.30 1011.15 1010.50 1010.19 1009.78 1009.93 1009.77 1009.47 1009.34 1009.44 1009.69 1010.13 1010.58 1010.95 1011.86 1012.58 1012.79 1012.67 1012.83 1012.98 1013.30 1014.87 1015.71 1016.18 1016.46 1016.77 1018.05 1018.05 1018.29 1018.43 1019.65 1020.20 1019.92 1020.32 1020.50 1020.49 1020.55 1020.64 1020.99 1021.72 1022.40 1022.93
1011.71 1011.86 1011.79 1011.73 1011.31 1010.71 1010.42 1010.10 1009.96 1009.66 1009.74 1009.64 1009.80 1009.77 1009.82 1010.73 1011.57 1012.03 1012.63 1013.41 1013.55 1013.42 1013.53 1013.55 1014.79 1015.81 1016.30 1016.32 1016.40 1016.53 1017.09 1017.68 1018.06 1017.65 1018.76 1018.26 1019.05 1019.06 1019.16 1019.85 1020.31 1020.80 1021.57 1022.22 1022.84
1012.21 1012.40 1012.36 1012.11 1011.63 1011.23 1010.65 1010.22 1010.02 1009.94 1009.78 1009.91 1009.97 1010.25 1010.33 1010.65 1010.54 1011.38 1011.68 1012.45 1012.80 1013.78 1013.83 1014.09 1015.22 1015.94 1017.09 1017.09 1016.84 1016.83 1016.85 1016.87 1016.89 1017.37 1017.63 1017.82 1017.93 1017.50 1018.32 1019.77 1020.41 1020.81 1021.59 1022.36 1022.91
1012.24 1012.33 1012.32 1012.58 1012.16 1011.52 1010.69 1010.35 1010.25 1010.27 1010.38 1010.29 1010.54 1010.77 1011.39 1011.63 1011.25 1010.83 1011.36 1011.50 1011.76 1012.56 1013.70 1014.37 1015.29 1016.48 1017.53 1017.56 1017.43 1017.48 1015.55 1016.26 1016.51 1016.49 1016.62 1017.24 1016.78 1017.77 1018.86 1019.52 1020.19 1020.94 1021.64 1022.41 1023.15
Thickness
5565 5568 5576 5577 5581 5581 5583 5585 5587 5590 5597 5602 5608 5613 5616 5621 5632 5643 5651 5667 5677 5686 5690 5692 5695 5696 5698 5696 5698 5697 5674 5667 5676 5680 5697 5694 5699 5699 5705 5698 5700 5701 5702 5706 5707
5562 5565 5571 5572 5575 5576 5578 5583 5582 5586 5591 5602 5603 5609 5619 5625 5631 5641 5661 5670 5676 5684 5686 5686 5683 5687 5686 5691 5692 5688 5671 5679 5689 5691 5697 5694 5701 5701 5703 5698 5700 5701 5703 5703 5704
5559 5561 5568 5567 5571 5574 5575 5580 5578 5580 5588 5597 5601 5604 5607 5617 5628 5648 5669 5670 5677 5682 5684 5688 5683 5687 5685 5691 5688 5686 5681 5688 5693 5699 5698 5695 5701 5703 5699 5697 5703 5705 5706 5701 5702
5554 5557 5564 5567 5568 5569 5573 5577 5575 5578 5582 5594 5596 5602 5610 5615 5615 5655 5666 5673 5675 5681 5679 5682 5678 5680 5678 5679 5689 5686 5687 5690 5694 5696 5696 5693 5696 5699 5700 5711 5712 5712 5712 5705 5705
5551 5553 5556 5561 5568 5566 5571 5575 5575 5580 5584 5591 5599 5604 5609 5612 5628 5653 5662 5668 5676 5677 5674 5681 5677 5680 5675 5677 5685 5686 5685 5688 5689 5691 5694 5696 5697 5698 5702 5710 5710 5709 5711 5710 5710
5547 5547 5551 5556 5561 5562 5570 5575 5576 5580 5585 5591 5601 5605 5611 5611 5640 5649 5657 5661 5668 5674 5675 5681 5678 5686 5674 5672 5679 5681 5680 5682 5686 5689 5691 5696 5694 5697 5707 5707 5709 5709 5708 5709 5710
5542 5545 5547 5551 5556 5560 5566 5571 5573 5576 5584 5590 5600 5606 5609 5618 5640 5646 5654 5660 5667 5674 5672 5682 5682 5686 5675 5672 5673 5672 5673 5677 5681 5684 5686 5692 5691 5689 5703 5706 5709 5708 5710 5707 5710
5537 5541 5544 5548 5552 5555 5562 5568 5571 5574 5582 5589 5595 5604 5607 5626 5634 5640 5646 5653 5664 5670 5672 5677 5682 5673 5670 5669 5661 5660 5662 5658 5674 5678 5681 5689 5677 5699 5697 5703 5707 5704 5707 5706 5709
5534 5537 5542 5546 5549 5552 5559 5563 5568 5574 5581 5582 5594 5604 5608 5624 5629 5638 5644 5648 5655 5664 5665 5671 5669 5658 5661 5653 5643 5645 5648 5657 5667 5670 5675 5678 5680 5694 5698 5695 5701 5700 5704 5702 5706
5532 5536 5538 5542 5546 5551 5556 5557 5562 5570 5576 5579 5593 5598 5608 5616 5626 5631 5640 5647 5650 5655 5652 5653 5646 5639 5637 5645 5637 5644 5648 5654 5662 5664 5670 5668 5672 5680 5691 5693 5694 5695 5699 5700 5703
5527 5531 5536 5536 5542 5547 5554 5554 5556 5562 5573 5585 5593 5601 5609 5614 5624 5624 5635 5639 5641 5639 5630 5638 5635 5632 5648 5654 5654 5644 5647 5650 5654 5660 5664 5662 5664 5675 5686 5689 5694 5696 5696 5698 5700
5521 5528 5530 5535 5540 5543 5551 5558 5574 5586 5570 5581 5591 5597 5605 5613 5611 5616 5630 5626 5629 5617 5628 5625 5626 5641 5639 5639 5641 5644 5642 5645 5647 5653 5656 5654 5662 5677 5682 5687 5691 5692 5694 5696 5699
5517 5522 5525 5531 5534 5540 5549 5561 5567 5576 5571 5573 5582 5593 5601 5609 5610 5611 5624 5622 5618 5618 5623 5623 5636 5634 5637 5633 5637 5638 5640 5641 5649 5645 5643 5644 5655 5670 5681 5681 5682 5686 5687 5690 5693
5506 5512 5521 5526 5530 5541 5547 5555 5562 5570 5551 5562 5575 5587 5593 5603 5599 5609 5618 5622 5616 5609 5615 5622 5622 5627 5623 5628 5633 5632 5641 5637 5634 5636 5631 5635 5637 5656 5669 5669 5676 5673 5676 5680 5683
5495 5505 5517 5524 5534 5541 5549 5551 5559 5562 5531 5560 5562 5579 5588 5593 5598 5601 5611 5616 5607 5610 5618 5616 5615 5618 5622 5632 5633 5630 5630 5627 5622 5616 5623 5628 5625 5652 5656 5671 5674 5671 5672 5672 5672
5487 5498 5510 5518 5530 5534 5540 5545 5546 5524 5526 5547 5556 5565 5575 5582 5589 5595 5605 5609 5607 5607 5599 5604 5615 5622 5623 5614 5624 5613 5614 5606 5597 5601 5602 5617 5615 5638 5653 5664 5669 5666 5663 5664 5665
5482 5491 5500 5509 5524 5526 5529 5531 5512 5500 5547 5543 5555 5563 5572 5570 5577 5587 5590 5592 5593 5585 5591 5595 5600 5608 5611 5605 5608 5615 5609 5586 5586 5578 5596 5593 5599 5637 5655 5656 5656 5659 5655 5652 5652
5470 5483 5490 5501 5508 5515 5520 5517 5494 5532 5544 5549 5555 5561 5566 5572 5568 5577 5581 5583 5593 5597 5582 5586 5585 5598 5610 5612 5610 5606 5616 5594 5587 5575 5594 5583 5600 5632 5643 5642 5647 5646 5643 5642 5643
5459 5472 5483 5488 5498 5508 5515 5513 5533 5535 5553 5545 5553 5553 5553 5565 5573 5574 5577 5592 5595 5598 5598 5587 5590 5595 5602 5607 5613 5602 5599 5603 5563 5475 5555 5585 5606 5630 5632 5635 5636 5634 5636 5635 5635
5452 5460 5469 5478 5487 5500 5508 5525 5534 5543 5549 5553 5554 5557 5551 5555 5564 5564 5570 5588 5593 5595 5608 5596 5579 5580 5589 5596 5597 5602 5599 5589 5565 5548 5560 5580 5590 5615 5625 5625 5625 5625 5627 5628 5628
5441 5450 5462 5476 5480 5486 5507 5522 5527 5538 5550 5555 5555 5549 5558 5560 5563 5567 5577 5586 5591 5586 5598 5592 5587 5568 5577 5584 5587 5590 5594 5587 5589 5580 5570 5551 5595 5609 5618 5617 5617 5614 5617 5618 5617
5432 5436 5449 5465 5465 5457 5503 5519 5524 5525 5535 5549 5555 5558 5557 5559 5555 5563 5570 5590 5589 5592 5586 5590 5571 5552 5571 5576 5579 5590 5592 5592 5581 5572 5545 5560 5591 5608 5609 5608 5606 5606 5606 5602 5599
5420 5425 5436 5452 5462 5467 5470 5501 5509 5518 5526 5535 5545 5554 5556 5560 5557 5560 5568 5573 5572 5583 5583 5581 5559 5527 5553 5562 5563 5573 5580 5586 5581 5570 5555 5564 5587 5588 5593 5595 5597 5594 5589 5586 5583
5408 5420 5425 5437 5446 5464 5473 5487 5497 5504 5519 5529 5536 5544 5547 5550 5557 5551 5557 5561 5563 5572 5576 5578 5554 5563 5577 5585 5578 5574 5576 5578 5589 5570 5569 5579 5581 5583 5583 5584 5588 5590 5578 5570 5569
5393 5411 5416 5430 5440 5455 5472 5477 5486 5498 5504 5514 5522 5535 5543 5538 5541 5543 5541 5540 5548 5555 5559 5566 5555 5558 5561 5568 5570 5573 5570 5565 5573 5595 5579 5594 5582 5589 5589 5578 5575 5577 5567 5564 5560
5381 5393 5402 5412 5423 5442 5460 5469 5478 5487 5497 5501 5514 5518 5527 5535 5547 5538 5540 5540 5546 5542 5546 5544 5520 5542 5528 5543 5557 5563 5558 5568 5581 5573 5574 5568 5583 5596 5587 5564 5564 5564 5556 5551 5546
5368 5378 5392 5398 5410 5431 5449 5462 5472 5475 5482 5493 5498 5503 5508 5514 5520 5528 5531 5538 5544 5543 5536 5535 5522 5508 5496 5523 5536 5522 5563 5560 5566 5559 5576 5567 5592 5568 5560 5560 5550 5545 5541 5536 5532